Location: Newark
(22.3060°N, 114.2134°E)
Time: 11:40:56
(UTC+00:00)

Vanguard 2 - All Passes

Search period start: 03 August 2021 00:00
Search period end: 13 August 2021 00:00
Orbit: 552 x 2937 km, 32.9° (Epoch: 02 August)

Date Brightness Start Highest point End Pass type
(mag) Time Alt. Az. Time Alt. Az. Time Alt. Az.
03 Aug - 01:02:16 10° WNW 01:08:33 74° NNE 01:19:22 10° ESE daylight
03 Aug - 03:10:32 10° W 03:18:45 45° SSW 03:31:50 10° SE daylight
03 Aug - 05:23:37 10° WSW 05:30:43 17° SSW 05:39:17 10° S daylight
03 Aug - 16:46:15 10° SSW 16:50:37 21° SSE 16:54:02 10° ESE night (unlit)
03 Aug - 18:54:32 10° WSW 18:58:59 67° NNW 19:02:54 10° ENE visible
03 Aug - 21:04:32 10° WNW 21:07:44 22° N 21:11:27 10° NE visible
03 Aug - 23:12:41 10° NW 23:17:10 35° NNE 23:23:47 10° E daylight
04 Aug - 01:19:57 10° WNW 01:26:23 86° SSW 01:37:31 10° ESE daylight
04 Aug - 03:28:53 10° W 03:36:50 34° SSW 03:48:47 10° SSE daylight
04 Aug - 05:47:07 10° SW 05:49:13 10° SSW 05:51:25 10° SSW daylight
04 Aug - 17:03:06 10° SW 17:08:30 34° SSE 17:12:27 10° E night (unlit)
04 Aug - 19:12:37 10° W 19:16:46 41° NNW 19:20:32 10° NE visible
04 Aug - 21:22:40 10° NW 21:25:49 21° N 21:29:31 10° NE visible
04 Aug - 23:30:19 10° NW 23:35:03 44° NNE 23:42:20 10° E daylight
05 Aug - 01:37:43 10° WNW 01:44:15 65° SSW 01:55:23 10° SE daylight
05 Aug - 03:47:42 10° WSW 03:55:01 24° SSW 04:05:13 10° SSE daylight
05 Aug - 15:13:30 10° S 15:17:02 14° SSE 15:19:59 10° SE night (unlit)
05 Aug - 17:20:29 10° SW 17:26:18 57° SSE 17:30:27 10° ENE night (unlit)
05 Aug - 19:30:54 10° WNW 19:34:37 29° NNW 19:38:08 10° NE visible
05 Aug - 21:40:36 10° NW 21:43:51 22° N 21:47:48 10° ENE daylight
05 Aug - 23:47:54 10° NW 23:52:51 58° NNE 00:00:46 10° ESE daylight
06 Aug - 01:55:40 10° W 02:02:11 47° SSW 02:12:54 10° SE daylight
06 Aug - 04:07:23 10° WSW 04:13:19 17° SSW 04:20:48 10° S daylight
06 Aug - 15:29:16 10° SSW 15:35:07 22° SSE 15:39:23 10° ESE night (unlit)
06 Aug - 17:38:14 10° WSW 17:44:04 88° NNW 17:48:13 10° ENE night (unlit)
06 Aug - 19:49:15 10° WNW 19:52:34 23° N 19:55:47 10° NE visible
06 Aug - 21:58:22 10° NW 22:01:52 25° NNE 22:06:14 10° ENE daylight
07 Aug - 00:05:32 10° WNW 00:10:38 81° NNE 00:19:00 10° ESE daylight
07 Aug - 02:13:53 10° W 02:20:13 33° SSW 02:30:00 10° SSE daylight
07 Aug - 04:30:18 10° SW 04:31:45 10° SSW 04:33:17 10° SSW daylight
07 Aug - 15:46:01 10° SW 15:53:08 33° SSE 15:57:53 10° E night (unlit)
07 Aug - 17:56:16 10° WSW 18:01:49 57° NNW 18:05:52 10° NE night (unlit)
07 Aug - 20:07:34 10° NW 20:10:35 19° N 20:13:35 10° NE visible
07 Aug - 22:16:01 10° NW 22:19:47 31° NNE 22:24:44 10° E daylight
08 Aug - 00:23:14 10° WNW 00:28:25 72° SSW 00:36:58 10° SE daylight
08 Aug - 02:32:31 10° WSW 02:38:21 23° SSW 02:46:35 10° SSE daylight
08 Aug - 13:55:35 10° S 14:01:00 15° SSE 14:05:16 10° ESE visible
08 Aug - 16:03:17 10° SW 16:11:03 51° SSE 16:15:58 10° ENE night (unlit)
08 Aug - 18:14:33 10° W 18:19:35 38° NNW 18:23:27 10° NE visible
08 Aug - 20:25:43 10° NW 20:28:38 19° N 20:31:35 10° NE visible
08 Aug - 22:33:35 10° NW 22:37:37 42° NNE 22:43:09 10° E daylight
09 Aug - 00:41:07 10° WNW 00:46:17 49° SSW 00:54:35 10° SE daylight
09 Aug - 02:52:01 10° WSW 02:56:34 15° SSW 03:02:17 10° S daylight
09 Aug - 14:11:22 10° SSW 14:19:11 23° SSE 14:24:41 10° ESE visible
09 Aug - 16:20:57 10° WSW 16:28:52 76° SSE 16:33:48 10° ENE night (unlit)
09 Aug - 18:32:59 10° WNW 18:37:26 29° NNW 18:41:02 10° NE visible
09 Aug - 20:43:40 10° NW 20:46:40 20° N 20:49:49 10° ENE visible
09 Aug - 22:51:11 10° WNW 22:55:23 62° NNE 23:01:25 10° ESE daylight
10 Aug - 00:59:13 10° W 01:04:13 33° SSW 01:11:48 10° SSE daylight
10 Aug - 12:24:20 10° SSE 12:25:59 10° SSE 12:27:32 10° SE visible
10 Aug - 14:28:01 10° SSW 14:37:18 34° SSE 14:43:17 10° E visible
10 Aug - 16:38:56 10° WSW 16:46:39 75° NNW 16:51:29 10° ENE night (unlit)
10 Aug - 18:51:27 10° WNW 18:55:24 23° NNW 18:58:41 10° NE visible
10 Aug - 21:01:24 10° NW 21:04:40 24° NNE 21:08:11 10° ENE visible
10 Aug - 23:08:50 10° WNW 23:13:08 86° SSW 23:19:26 10° ESE daylight
11 Aug - 01:17:45 10° WSW 01:22:16 22° SSW 01:28:30 10° SSE daylight
11 Aug - 12:37:09 10° S 12:44:24 17° SSE 12:50:05 10° ESE visible
11 Aug - 14:45:10 10° SW 14:55:18 48° SSE 15:01:26 10° E visible
11 Aug - 16:57:11 10° W 17:04:25 53° NNW 17:09:06 10° NE night (unlit)
11 Aug - 19:09:50 10° WNW 19:13:24 21° N 19:16:29 10° NE visible
11 Aug - 21:19:01 10° NW 21:22:34 31° NNE 21:26:34 10° E visible
11 Aug - 23:26:38 10° WNW 23:30:55 54° SSW 23:37:09 10° SE daylight
12 Aug - 01:37:14 10° SW 01:40:23 14° SSW 01:44:12 10° S daylight
12 Aug - 12:52:50 10° SSW 13:02:40 24° SSE 13:09:39 10° E visible
12 Aug - 15:02:44 10° SW 15:13:13 67° SSE 15:19:21 10° ENE visible
12 Aug - 17:15:38 10° W 17:22:14 40° NNW 17:26:42 10° NE night (unlit)
12 Aug - 19:28:02 10° NW 19:31:27 20° N 19:34:29 10° NE visible
12 Aug - 21:36:37 10° NW 21:40:25 45° NNE 21:44:50 10° E visible
12 Aug - 23:44:40 10° W 23:48:45 33° SSW 23:54:29 10° SE daylight
